Location: Newark
(39.6867°N, 100.6772°W)
Time: 23:29:41
(UTC+00:00)

Vanguard 1 Rocket - Pass Details

Date: 25 October 2019
Orbit: 651 x 4225 km, 34.3° (Epoch: 14 November)

Event Time Altitude Azimuth Distance (km) Brightness Sun altitude
Rises 01:03:10 0° 278° (W) 8,307 14.0 -14.5°
Reaches altitude 10° 01:14:47 10° 256° (WSW) 7,427 13.3 -16.8°
Maximum altitude 01:23:22 13° 236° (WSW) 7,019 12.7 -18.4°
Drops below altitude 10° 01:31:32 10° 216° (SW) 6,895 12.3 -20.0°
Sets 01:41:34 0° 191° (SSW) 7,179 12.1 -21.9°
